Location: Newark
(50.0306°N, 2.3272°E)
Time: 12:58:46
(UTC+00:00)

A-11 Canister half - Pass Details

Date: 11 December 2019
Orbit: 1525 x 1684 km, 47.3° (Epoch: 26 January)

Event Time Altitude Azimuth Distance (km) Brightness Sun altitude
Rises 10:51:12 0° 285° (WNW) 4,940 11.4 16.1°
Reaches altitude 10° 10:54:28 10° 281° (W) 3,943 11.0 16.2°
Maximum altitude 11:04:11 55° 208° (SSW) 1,932 10.3 16.4°
Drops below altitude 10° 11:13:39 10° 134° (SE) 3,838 12.1 16.7°
Sets 11:16:48 0° 130° (SE) 4,800 12.3 16.7°
